This is the latest recevied weather packets stored in our database for station/object KI4BIY. If no packets are shown the sender has not sent any weather packets the latest 10 day(s).
| Time | Temp. | Humidity | Pressure | Rain* | Wind** | Luminosity | Snow |
|---|---|---|---|---|---|---|---|
| 1778280100 | 22.78° C | 51% | 1010 hPa | 0 mm | - | 19 W/m² | - |
| 1778279797 | 22.78° C | 50% | 1009.7 hPa | 0 mm | - | 20 W/m² | - |
| 1778279494 | 22.78° C | 49% | 1010 hPa | 0 mm | - | 21 W/m² | - |
| 1778279192 | 22.78° C | 50% | 1010.2 hPa | 0 mm | - | 20 W/m² | - |
| 1778278888 | 23.33° C | 52% | 1009.8 hPa | 0 mm | - | 22 W/m² | - |
| 1778278585 | 23.33° C | 50% | 1010.1 hPa | 0 mm | - | 21 W/m² | - |
| 1778278280 | 23.33° C | 48% | 1010 hPa | 0 mm | - | 22 W/m² | - |
| 1778277977 | 22.78° C | 50% | 1009.9 hPa | 0 mm | - | 23 W/m² | - |
| 1778277674 | 23.33° C | 51% | 1010 hPa | 0 mm | - | 23 W/m² | - |
| 1778277371 | 23.33° C | 53% | 1010 hPa | 0 mm | - | 24 W/m² | - |
| 1778277067 | 22.78° C | 50% | 1010.1 hPa | 0 mm | - | 25 W/m² | - |
| 1778276765 | 23.33° C | 53% | 1010 hPa | 0 mm | - | 25 W/m² | - |
| 1778276461 | 23.33° C | 51% | 1010.2 hPa | 0 mm | - | 26 W/m² | - |
| 1778276158 | 23.33° C | 48% | 1010.3 hPa | 0 mm | - | 26 W/m² | - |
| 1778275854 | 23.33° C | 51% | 1010.1 hPa | 0 mm | - | 26 W/m² | - |
| 1778275551 | 23.33° C | 49% | 1010.2 hPa | 0 mm | - | 27 W/m² | - |
| 1778275247 | 23.33° C | 47% | 1010.4 hPa | 0 mm | - | 27 W/m² | - |
| 1778274943 | 23.33° C | 48% | 1010.3 hPa | 0 mm | - | 28 W/m² | - |
| 1778274639 | 23.33° C | 48% | 1010.4 hPa | 0 mm | - | 29 W/m² | - |
| 1778274336 | 23.33° C | 49% | 1010.4 hPa | 0 mm | - | 30 W/m² | - |
| 1778274034 | 23.33° C | 49% | 1010.5 hPa | 0 mm | - | 30 W/m² | - |
| 1778273730 | 23.89° C | 51% | 1010.4 hPa | 0 mm | - | 32 W/m² | - |
| 1778273426 | 23.33° C | 49% | 1010.4 hPa | 0 mm | - | 31 W/m² | - |
| 1778273124 | 23.89° C | 47% | 1010.3 hPa | 0 mm | - | 32 W/m² | - |
| 1778272819 | 23.89° C | 51% | 1010.5 hPa | 0 mm | - | 38 W/m² | - |
* Rain latest hour (hover to see other rain measurements)
** Current wind speed in m/s (hover to see current wind gust speed)